Regional Weather Roundup
Issued by NWS

Home | Current Version | Previous Version | Text Only | Print | Product List | Glossary Off
Versions: 1 2 3 4 5 6 7 8 9 10 11 12 13 14 15 16 17 18 19 20 21 22 23 24 25 26 27 28 29 30 31 32 33 34 35 36 37 38 39 40 41 42 43 44 45 46 47 48 49 50

000
ASUS43 KLMK 020710
RWRKY
KENTUCKY REGIONAL WEATHER ROUNDUP
NATIONAL WEATHER SERVICE LOUISVILLE KY
300 AM EDT SUN AUG 02 2015

NOTE "FAIR" INDICATES FEW OR NO CLOUDS BELOW 12,000 FEET
WITH NO SIGNIFICANT WEATHER AND/OR OBSTRUCTIONS TO VISIBILITY.

KYZ001>023-026-027-061>063-070>075-020800-
WESTERN AND SOUTH CENTRAL KENTUCKY

CITY           SKY/WX    TMP DP  RH WIND       PRES   REMARKS
PADUCAH        PTCLDY    70  67  90 CALM      29.98F
HENDERSON      CLEAR     63  59  88 CALM      29.98F
OWENSBORO      CLEAR     67  65  93 CALM      30.01S
HOPKINSVILLE   CLEAR     68  64  89 CALM      29.99S
BOWLING GREEN  CLEAR     65  61  87 CALM      30.00F
GLASGOW        CLEAR    N/A N/A N/A CALM      30.00S
$$

KYZ024-025-028>034-038-045-046-053-020800-
NORTH CENTRAL KENTUCKY

CITY           SKY/WX    TMP DP  RH WIND       PRES   REMARKS
LOUISVILLE/SDF PTCLDY    69  61  75 SW5       30.00S
LOUISVILLE/LOU CLEAR     66  60  81 CALM      30.01S
FORT KNOX      CLEAR     62  60  93 SW1       30.00S
$$

KYZ035>037-039>044-047>052-055>060-089>105-020800-
NORTHEAST KENTUCKY

CITY           SKY/WX    TMP DP  RH WIND       PRES   REMARKS
LEXINGTON      CLEAR     64  59  83 CALM      30.02S
COVINGTON      PTCLDY    64  60  87 CALM      30.00S
FRANKFORT      CLEAR     62  59  90 CALM      30.00F
$$

KYZ054-064>069-076>088-106>120-020800-
SOUTHEAST KENTUCKY

CITY           SKY/WX    TMP DP  RH WIND       PRES   REMARKS
JACKSON        MOCLDY    68  59  73 CALM      30.02F
LONDON         PTCLDY    64  58  80 CALM      30.02F
SOMERSET       CLEAR     61  61 100 CALM      30.02F
MIDDLESBORO    PTCLDY    62  61  97 CALM      30.02S
MONTICELLO     SUNNY     60  60 100 CALM      30.04F
$$



USA.gov is the U.S. government's official web portal to all federal, state and local government web resources and services.